Estación Meteorológica Peña el Pijo (Robertgarden) [ 07/12/20 00:21:29 CEST ]

Fecha Hora Presion(HPa) Temp (°C) Humedad % Rocio (°C) Viento ( m/s) Direccion Lluvia 1Hora(mm) Lluvia 24H(mm) LLuvia Total(mm)
2019-Dec-15 01:08:59 1006.400 - - - - S     39.88
2019-Dec-15 02:10:32 1005.800 - - - - S     39.88
2019-Dec-15 03:13:55 1005.700 - - - - S     39.88
2019-Dec-15 04:09:35 1005.400 - - - - S     39.88
2019-Dec-15 05:09:26 1004.900 - - - - S     39.88
2019-Dec-15 06:12:59 1004.600 - - - - S     39.88
2019-Dec-15 07:09:11 1004.600 - - - - S     39.88
2019-Dec-15 08:09:11 1004.900 - - - - S     39.88
2019-Dec-15 09:09:16 1005.100 - - - - S     39.88
2019-Dec-15 10:09:18 1005.500 - - - - S     39.88
2019-Dec-15 11:09:33 1005.000 - - - - S     39.88
2019-Dec-15 12:09:23 1004.500 - - - - S     39.88
2019-Dec-15 13:09:09 1003.800 - - - - S     39.88
2019-Dec-15 14:09:10 1002.900 - - - - S     39.88
2019-Dec-15 15:08:36 1002.500 - - - - S     39.88
2019-Dec-15 16:09:11 1002.200 - - - - S     39.88
2019-Dec-15 17:09:09 1002.800 - - - - S     39.88
2019-Dec-15 18:09:12 1002.600 - - - - S     39.88
2019-Dec-15 19:09:16 1002.700 - - - - S     39.88
2019-Dec-15 20:09:07 1003.000 - - - - S     39.88
2019-Dec-15 21:08:55 1002.500 - - - - S     39.88
2019-Dec-15 22:08:52 1002.000 - - - - S     39.88
2019-Dec-15 23:09:29 1001.800 - - - - S     39.88

Temperatura Máxima:    Temperatura Mínima:
Presión Máxima:1006.400 Hpa    Presión Mínima:1001.800 Hpa


Volver